Previsão horária em Junín

Hoje, 23 Junho, Quarta-feira

Tempo Temperatura Precipitação Vento Pressão Humidade
00:00 +8°C° 0 mm 4 m/s 756 mmHg 92%
01:00 +8°C° 0 mm 3 m/s 755 mmHg 94%
02:00 +8°C° 0 mm 3 m/s 755 mmHg 95%
03:00 +8°C° 0 mm 3 m/s 755 mmHg 94%
04:00 +9°C° 0 mm 3 m/s 754 mmHg 92%
05:00 +8°C° 0 mm 4 m/s 754 mmHg 91%
06:00 +10°C° 0.1 mm 4 m/s 754 mmHg 90%
07:00 +10°C° 0.1 mm 4 m/s 754 mmHg 89%
08:00 +10°C° 0.1 mm 4 m/s 754 mmHg 89%
09:00 +11°C° 0 mm 4 m/s 754 mmHg 86%
10:00 +12°C° 0 mm 4 m/s 754 mmHg 83%
11:00 +13°C° 0 mm 4 m/s 753 mmHg 80%
12:00 +13°C° 0 mm 4 m/s 753 mmHg 79%
13:00 +14°C° 0 mm 4 m/s 752 mmHg 79%
14:00 +14°C° 0 mm 4 m/s 751 mmHg 78%
15:00 +14°C° 0 mm 4 m/s 751 mmHg 79%
16:00 +13°C° 0 mm 3 m/s 751 mmHg 81%
17:00 +13°C° 0 mm 3 m/s 751 mmHg 82%
18:00 +13°C° 0 mm 3 m/s 751 mmHg 86%
19:00 +13°C° 0 mm 2 m/s 751 mmHg 89%
20:00 +13°C° 0 mm 2 m/s 751 mmHg 92%
21:00 +12°C° 0 mm 2 m/s 751 mmHg 93%
22:00 +12°C° 0 mm 2 m/s 751 mmHg 93%
23:00 +12°C° 0 mm 1 m/s 752 mmHg 94%

Amanhã, 24 Junho, Quinta-feira

Tempo Temperatura Precipitação Vento Pressão Humidade
00:00 +12°C° 0 mm 2 m/s 751 mmHg 95%
01:00 +10°C° 0 mm 3 m/s 751 mmHg 96%
02:00 +10°C° 0 mm 3 m/s 751 mmHg 97%
03:00 +10°C° 0 mm 4 m/s 751 mmHg 95%
04:00 +11°C° 0 mm 4 m/s 751 mmHg 94%
05:00 +11°C° 0 mm 4 m/s 751 mmHg 93%
06:00 +10°C° 0 mm 5 m/s 751 mmHg 92%
07:00 +10°C° 0 mm 5 m/s 752 mmHg 91%
08:00 +10°C° 0 mm 5 m/s 752 mmHg 90%
09:00 +13°C° 0 mm 5 m/s 752 mmHg 79%
10:00 +14°C° 0 mm 6 m/s 752 mmHg 69%
11:00 +16°C° 0 mm 6 m/s 752 mmHg 58%
12:00 +16°C° 0 mm 7 m/s 752 mmHg 49%
13:00 +17°C° 0 mm 7 m/s 752 mmHg 39%
14:00 +18°C° 0 mm 7 m/s 751 mmHg 30%
15:00 +16°C° 0 mm 6 m/s 752 mmHg 35%
16:00 +14°C° 0 mm 4 m/s 752 mmHg 41%
17:00 +13°C° 0 mm 3 m/s 752 mmHg 47%
18:00 +12°C° 0 mm 3 m/s 753 mmHg 50%
19:00 +11°C° 0 mm 3 m/s 753 mmHg 53%
20:00 +10°C° 0 mm 3 m/s 754 mmHg 56%
21:00 +10°C° 0 mm 3 m/s 754 mmHg 58%
22:00 +9°C° 0 mm 2 m/s 754 mmHg 59%
23:00 +9°C° 0 mm 2 m/s 754 mmHg 60%

Depois de amanhã, 25 Junho, Sexta-feira

Tempo Temperatura Precipitação Vento Pressão Humidade
00:00 +9°C° 0 mm 2 m/s 754 mmHg 61%
01:00 +8°C° 0 mm 3 m/s 754 mmHg 62%
02:00 +8°C° 0 mm 3 m/s 754 mmHg 63%
03:00 +8°C° 0 mm 2 m/s 754 mmHg 64%
04:00 +8°C° 0 mm 2 m/s 754 mmHg 64%
05:00 +7°C° 0 mm 2 m/s 754 mmHg 65%
06:00 +8°C° 0 mm 2 m/s 754 mmHg 63%
07:00 +9°C° 0 mm 1 m/s 754 mmHg 61%
08:00 +10°C° 0 mm 1 m/s 754 mmHg 60%
09:00 +12°C° 0 mm 2 m/s 754 mmHg 53%
10:00 +14°C° 0 mm 2 m/s 754 mmHg 47%
11:00 +16°C° 0 mm 3 m/s 755 mmHg 40%
12:00 +17°C° 0 mm 3 m/s 754 mmHg 37%
13:00 +18°C° 0 mm 4 m/s 753 mmHg 34%
14:00 +19°C° 0 mm 4 m/s 753 mmHg 32%
15:00 +18°C° 0 mm 4 m/s 753 mmHg 36%
16:00 +16°C° 0 mm 3 m/s 753 mmHg 40%
17:00 +14°C° 0 mm 2 m/s 753 mmHg 45%
18:00 +13°C° 0 mm 2 m/s 753 mmHg 48%
19:00 +12°C° 0 mm 2 m/s 753 mmHg 51%
20:00 +11°C° 0 mm 3 m/s 754 mmHg 54%
21:00 +10°C° 0 mm 2 m/s 754 mmHg 57%
22:00 +9°C° 0 mm 2 m/s 754 mmHg 60%
23:00 +9°C° 0 mm 2 m/s 754 mmHg 64%

26 Junho, Sábado

Tempo Temperatura Precipitação Vento Pressão Humidade
00:00 +9°C° 0 mm 3 m/s 755 mmHg 66%
01:00 +10°C° 0 mm 4 m/s 755 mmHg 68%
02:00 +9°C° 0 mm 5 m/s 755 mmHg 69%
03:00 +9°C° 0 mm 5 m/s 756 mmHg 72%
04:00 +10°C° 0 mm 4 m/s 756 mmHg 74%
05:00 +10°C° 0 mm 4 m/s 756 mmHg 76%
06:00 +8°C° 0 mm 4 m/s 757 mmHg 78%
07:00 +8°C° 0 mm 4 m/s 757 mmHg 79%
08:00 +8°C° 0 mm 4 m/s 758 mmHg 81%
09:00 +9°C° 0 mm 5 m/s 758 mmHg 71%
10:00 +12°C° 0 mm 5 m/s 759 mmHg 61%
11:00 +13°C° 0 mm 6 m/s 759 mmHg 52%
12:00 +13°C° 0 mm 6 m/s 759 mmHg 45%
13:00 +14°C° 0 mm 7 m/s 759 mmHg 38%
14:00 +14°C° 0 mm 7 m/s 759 mmHg 31%
15:00 +12°C° 0 mm 7 m/s 760 mmHg 34%
16:00 +10°C° 0 mm 6 m/s 760 mmHg 37%
17:00 +9°C° 0 mm 5 m/s 761 mmHg 40%
18:00 +8°C° 0 mm 5 m/s 762 mmHg 45%
19:00 +7°C° 0 mm 4 m/s 762 mmHg 50%
20:00 +5°C° 0 mm 4 m/s 763 mmHg 55%
21:00 +5°C° 0 mm 4 m/s 764 mmHg 59%
22:00 +4°C° 0 mm 4 m/s 764 mmHg 63%
23:00 +4°C° 0 mm 4 m/s 764 mmHg 68%

27 Junho, Domingo

Tempo Temperatura Precipitação Vento Pressão Humidade
00:00 +3°C° 0 mm 4 m/s 764 mmHg 72%
01:00 +3°C° 0 mm 4 m/s 765 mmHg 76%
02:00 +2°C° 0 mm 3 m/s 765 mmHg 80%
03:00 +2°C° 0 mm 3 m/s 765 mmHg 81%
04:00 +2°C° 0 mm 3 m/s 765 mmHg 83%
05:00 +1°C° 0 mm 3 m/s 765 mmHg 85%
06:00 +1°C° 0 mm 3 m/s 766 mmHg 85%
07:00 +1°C° 0 mm 3 m/s 767 mmHg 84%
08:00 +2°C° 0 mm 3 m/s 767 mmHg 84%
09:00 +4°C° 0 mm 3 m/s 767 mmHg 75%
10:00 +6°C° 0 mm 4 m/s 767 mmHg 65%
11:00 +10°C° 0 mm 4 m/s 768 mmHg 55%
12:00 +10°C° 0 mm 4 m/s 767 mmHg 51%
13:00 +11°C° 0 mm 4 m/s 767 mmHg 48%
14:00 +11°C° 0 mm 4 m/s 767 mmHg 44%
15:00 +10°C° 0 mm 3 m/s 767 mmHg 49%
16:00 +9°C° 0 mm 3 m/s 767 mmHg 54%
17:00 +8°C° 0 mm 2 m/s 767 mmHg 58%
18:00 +7°C° 0 mm 2 m/s 767 mmHg 62%
19:00 +6°C° 0 mm 2 m/s 768 mmHg 66%
20:00 +5°C° 0 mm 2 m/s 768 mmHg 70%
21:00 +5°C° 0 mm 2 m/s 768 mmHg 73%
22:00 +5°C° 0 mm 1 m/s 768 mmHg 75%
23:00 +5°C° 0 mm 1 m/s 768 mmHg 77%

28 Junho, Segunda-feira

Tempo Temperatura Precipitação Vento Pressão Humidade
00:00 +4°C° 0 mm 1 m/s 769 mmHg 79%
01:00 +4°C° 0 mm 1 m/s 769 mmHg 80%
02:00 +4°C° 0 mm 1 m/s 769 mmHg 82%
03:00 +3°C° 0 mm 0 m/s 769 mmHg 82%
04:00 +2°C° 0 mm 0 m/s 769 mmHg 82%
05:00 +2°C° 0 mm 0 m/s 768 mmHg 83%
06:00 +2°C° 0 mm 0 m/s 769 mmHg 82%
07:00 +3°C° 0 mm 0 m/s 769 mmHg 81%
08:00 +4°C° 0 mm 1 m/s 769 mmHg 80%
09:00 +6°C° 0 mm 1 m/s 770 mmHg 71%
10:00 +8°C° 0 mm 1 m/s 770 mmHg 62%
11:00 +10°C° 0 mm 2 m/s 770 mmHg 52%
12:00 +10°C° 0 mm 2 m/s 769 mmHg 48%
13:00 +12°C° 0 mm 2 m/s 769 mmHg 44%
14:00 +13°C° 0 mm 2 m/s 768 mmHg 41%
15:00 +12°C° 0 mm 2 m/s 768 mmHg 44%
16:00 +9°C° 0 mm 2 m/s 768 mmHg 48%
17:00 +8°C° 0 mm 2 m/s 768 mmHg 52%
18:00 +7°C° 0 mm 2 m/s 768 mmHg 56%
19:00 +6°C° 0 mm 2 m/s 768 mmHg 60%
20:00 +5°C° 0 mm 2 m/s 768 mmHg 64%
21:00 +4°C° 0 mm 3 m/s 768 mmHg 67%
22:00 +3°C° 0 mm 3 m/s 768 mmHg 69%
23:00 +3°C° 0 mm 3 m/s 768 mmHg 72%
Mostrar mais

Necessitamos do seu Consentimento

A Meteoprog e os seus Fornecedores de Serviços podem armazenar e aceder a dados pessoais como cookies, identificadores do dispositivo ou outras tecnologias semelhantes existentes no seu dispositivo e processar estes dados para personalizar conteúdos e anúncios, assim como funcionalidades nas redes sociais e análise de tráfego.

  • Armazenar e/ou aceder a informações no seu dispositivo

    Os cookies, identificadores do dispositivo ou outras informações podem ser armazenados ou acedidos no seu dispositivo, para os fins acima indicados.

  • Anúncios e conteúdos personalizados, medição de anúncios e conteúdos, dados sobre o público-alvo e desenvolvimento de produtos

    Os anúncios e os conteúdos podem ser personalizados com base num perfil. Podem ser adicionados dados adicionais para uma maior personalização dos anúncios e dos conteúdos. A eficácia dos anúncios e dos conteúdos pode ser medida. Podem ser obtidas informações sobre o público que visualizou os anúncios e os conteúdos. Estes dados podem ser usados para desenvolver ou melhorar sistemas, softwares ou a experiência do utilizador.

Ao clicar em "Eu concordo”, permitirá o uso de cookies, identificadores do dispositivo e web beacons mencionados ou outras tecnologias semelhantes. As configurações do navegador do seu dispositivo podem ser alteradas.

Para certos fins, podem ser invocados interesses legítimos ao invés de consentimento. Pode ler mais informação sobre este assunto na nossa Política de Privacidade e Cookies.